sat.trackr.live / text

‹ back to catalog

STARLINK-2564

NORAD 48284 · 2021-036J

PAYLOAD ACTIVE UNKNOWN

§ Identity

Operator
Country
US
Launch date
2021-04-29
Launch site
AFETR
Launch vehicle
Mass (kg)
RCS (m²)

Purposes: comms

External: N2YO · Heavens-Above · Gunter

§ Orbital elements

Epoch: 2026-09-19T16:43:44.178240Z

Period
94.01 min
Inclination
53.1603°
Eccentricity
0.0001498
Mean motion
15.31692786 rev/d
Perigee alt
469.7 km
Apogee alt
471.8 km
Semi-major
6,848.9 km
B*
-2.5569e-5
RAAN
253.0060°
Arg perigee
80.4242°
Mean anomaly
279.6928°
Rev number
29,812

§ Raw data

STARLINK-25641 48284U 21036J   26262.69703910 -.00001158  00000+0 -25569-4 0  99982 48284  53.1603 253.0060 0001498  80.4242 279.6928 15.31692786298127

JSON: /api/v1/satellites/48284 · /tle

For live sub-satellite position, see the globe view (requires WebGL).

§ Visibility from observer

Set your observer location to see the next 7 days of passes ≥ 10°. The values pass through the URL so the page stays shareable.

No JS? Fill the form by hand. The geolocation button needs JavaScript.